Location: *
(50.9167°S, 179.4000°W)
Time: 19:42:24
(UTC+00:00)

Cosmos 1727 Rocket - Pass Details

Date: 03 March 2024
Orbit: 960 x 997 km, 82.9° (Epoch: 16 April)

Event Time Altitude Azimuth Distance (km) Brightness Sun altitude
Rises 13:27:02 0° 189° (S) 3,687 7.9 -30.2°
Reaches altitude 10° 13:29:36 10° 185° (S) 2,736 7.1 -30.0°
Maximum altitude 13:35:48 61° 104° (ESE) 1,103 4.3 -29.6°
Enters shadow 13:36:53 53° 62° (ENE) 1,185 4.3 -29.6°
